星链-4118 (STARLINK-4118 )

导读 | 豆包AI

STARLINK-4118是美国太空探索技术公司(SpaceX)于2022年8月19日发射的星链(Starlink)低轨互联网卫星,星链项目旨在搭建覆盖全球的高速卫星互联网星座,为全球偏远地区、网络基础设施薄弱区域提供稳定宽带接入服务,STARLINK-4118入轨后成为星链巨型星座的一员,助力全球网络覆盖组网。

基本信息
目录编号:
53538
目录名称:
STARLINK-4118
国际标识:
2022-101M
轨道中心:
EARTH
卫星名称:
星链-4118
卫星全名:
星链-4118 (STARLINK-4118 )
卫星状态:
已陨落 最后检测时间 2026-02-07
发射日期:
2022-08-19 UTC
国别 :
美国 (US)
星等 :
--
轨道信息
数据来源 国际轨道数据
星历时间: 2026-02-08T03:23:26+0800
轨道信息已过期82天
半长轴: 6527.685km
偏心率: 0.0001879
轨道倾角: 53.197°
近地点辐角 338.673°
升交点赤经 172.906°
平近点角 21.425°
近地点: 148.321km
远地点: 150.775km
周期: 87.478分钟
每日圈数: 16.461295
详细信息
固有亮度:
5
最大亮度:
2.5
卫星平台:
Starlink v1.5
覆盖范围:
全球
运营商:
太空探索技术公司
运营商所在国:
美国
制造商(研发单位):
太空探索技术公司
制造商所在国:
美国
使用方式:
暂无
卫星简介
星链(Starlink)计划是由太空探索技术公司(SpaceX)提出的一个巨型低轨卫星互联网星座项目,计划在2019年至2024年间在太空搭建由约1.2万颗卫星组成的“星链”网络,其中1584颗将部署在地球上空550千米处的近地轨道,并从2020年开始工作。该卫星仍在工作。